• In Kazakhstan
  • List of Countries
  • For 7 days
  • Water Temperature
  • Satellite Maps
  • Weather Map
  • News
  • Weather Widgets
  • user-avatar
    Login

    Hourly Weather Albany

    Today, 23 November, Thursday

    Time Temperature Precipitation Wind Pressure Humidity
    00:00 +12°C° 0 mm 3 mps 762 mmHg 79%
    01:00 +11°C° 0 mm 3 mps 762 mmHg 81%
    02:00 +11°C° 0 mm 3 mps 762 mmHg 83%
    03:00 +11°C° 0 mm 3 mps 762 mmHg 84%
    04:00 +11°C° 0 mm 3 mps 762 mmHg 85%
    05:00 +11°C° 0 mm 3 mps 762 mmHg 87%
    06:00 +13°C° 0 mm 3 mps 762 mmHg 78%
    07:00 +15°C° 0 mm 4 mps 762 mmHg 69%
    08:00 +18°C° 0 mm 4 mps 762 mmHg 60%
    09:00 +19°C° 0 mm 4 mps 761 mmHg 53%
    10:00 +21°C° 0 mm 4 mps 761 mmHg 47%
    11:00 +23°C° 0 mm 4 mps 761 mmHg 41%
    12:00 +23°C° 0 mm 5 mps 760 mmHg 41%
    13:00 +25°C° 0 mm 5 mps 760 mmHg 42%
    14:00 +25°C° 0 mm 5 mps 759 mmHg 43%
    15:00 +23°C° 0 mm 6 mps 759 mmHg 47%
    16:00 +22°C° 0 mm 6 mps 759 mmHg 52%
    17:00 +21°C° 0 mm 6 mps 759 mmHg 56%
    18:00 +19°C° 0 mm 6 mps 759 mmHg 63%
    19:00 +17°C° 0 mm 6 mps 759 mmHg 70%
    20:00 +15°C° 0 mm 5 mps 759 mmHg 77%
    21:00 +14°C° 0 mm 5 mps 759 mmHg 80%
    22:00 +14°C° 0 mm 4 mps 759 mmHg 83%
    23:00 +13°C° 0 mm 4 mps 759 mmHg 85%

    Tomorrow, 24 November, Friday

    Time Temperature Precipitation Wind Pressure Humidity
    00:00 +13°C° 0 mm 4 mps 759 mmHg 87%
    01:00 +13°C° 0 mm 4 mps 758 mmHg 88%
    02:00 +12°C° 0 mm 4 mps 758 mmHg 89%
    03:00 +12°C° 0 mm 3 mps 758 mmHg 90%
    04:00 +12°C° 0 mm 3 mps 758 mmHg 91%
    05:00 +12°C° 0 mm 3 mps 757 mmHg 91%
    06:00 +14°C° 0 mm 3 mps 757 mmHg 81%
    07:00 +18°C° 0 mm 3 mps 757 mmHg 70%
    08:00 +20°C° 0 mm 4 mps 757 mmHg 60%
    09:00 +22°C° 0 mm 4 mps 757 mmHg 54%
    10:00 +25°C° 0 mm 4 mps 756 mmHg 47%
    11:00 +27°C° 0 mm 3 mps 756 mmHg 41%
    12:00 +27°C° 0 mm 4 mps 755 mmHg 42%
    13:00 +28°C° 0 mm 4 mps 755 mmHg 43%
    14:00 +28°C° 0 mm 5 mps 754 mmHg 45%
    15:00 +26°C° 0 mm 5 mps 754 mmHg 52%
    16:00 +23°C° 0 mm 5 mps 754 mmHg 60%
    17:00 +22°C° 0 mm 5 mps 754 mmHg 68%
    18:00 +20°C° 0 mm 5 mps 754 mmHg 75%
    19:00 +19°C° 0 mm 4 mps 755 mmHg 81%
    20:00 +17°C° 0 mm 3 mps 755 mmHg 88%
    21:00 +17°C° 0 mm 3 mps 755 mmHg 88%
    22:00 +16°C° 0 mm 3 mps 755 mmHg 88%
    23:00 +16°C° 0 mm 2 mps 756 mmHg 88%

    Day after tomorrow, 25 November, Saturday

    Time Temperature Precipitation Wind Pressure Humidity
    00:00 +16°C° 0 mm 2 mps 756 mmHg 88%
    01:00 +15°C° 0 mm 2 mps 755 mmHg 88%
    02:00 +14°C° 0 mm 3 mps 755 mmHg 88%
    03:00 +14°C° 0 mm 3 mps 755 mmHg 87%
    04:00 +14°C° 0 mm 3 mps 755 mmHg 87%
    05:00 +14°C° 0 mm 3 mps 756 mmHg 87%
    06:00 +17°C° 0 mm 3 mps 756 mmHg 81%
    07:00 +19°C° 0 mm 4 mps 756 mmHg 75%
    08:00 +21°C° 0 mm 4 mps 757 mmHg 69%
    09:00 +21°C° 0 mm 5 mps 757 mmHg 67%
    10:00 +21°C° 0 mm 5 mps 757 mmHg 66%
    11:00 +21°C° 0 mm 5 mps 757 mmHg 64%
    12:00 +21°C° 0 mm 5 mps 757 mmHg 63%
    13:00 +21°C° 0 mm 5 mps 756 mmHg 62%
    14:00 +21°C° 0 mm 5 mps 756 mmHg 61%
    15:00 +20°C° 0 mm 5 mps 756 mmHg 63%
    16:00 +20°C° 0 mm 5 mps 757 mmHg 64%
    17:00 +19°C° 0 mm 5 mps 757 mmHg 65%
    18:00 +18°C° 0 mm 4 mps 757 mmHg 69%
    19:00 +17°C° 0 mm 4 mps 758 mmHg 73%
    20:00 +15°C° 0 mm 4 mps 758 mmHg 77%
    21:00 +15°C° 0 mm 5 mps 758 mmHg 78%
    22:00 +15°C° 0 mm 5 mps 758 mmHg 80%
    23:00 +14°C° 0 mm 5 mps 759 mmHg 82%

    26 November, Sunday

    Time Temperature Precipitation Wind Pressure Humidity
    00:00 +14°C° 0 mm 5 mps 758 mmHg 83%
    01:00 +14°C° 0 mm 4 mps 758 mmHg 84%
    02:00 +13°C° 0 mm 4 mps 757 mmHg 84%
    03:00 +13°C° 0 mm 4 mps 757 mmHg 84%
    04:00 +13°C° 0 mm 4 mps 758 mmHg 84%
    05:00 +13°C° 0 mm 4 mps 758 mmHg 83%
    06:00 +14°C° 0 mm 4 mps 758 mmHg 77%
    07:00 +16°C° 0 mm 5 mps 758 mmHg 72%
    08:00 +17°C° 0 mm 5 mps 758 mmHg 66%
    09:00 +19°C° 0 mm 5 mps 758 mmHg 62%
    10:00 +20°C° 0 mm 6 mps 757 mmHg 58%
    11:00 +22°C° 0 mm 6 mps 757 mmHg 54%
    12:00 +22°C° 0 mm 6 mps 757 mmHg 56%
    13:00 +22°C° 0 mm 6 mps 756 mmHg 57%
    14:00 +22°C° 0 mm 6 mps 756 mmHg 59%
    15:00 +21°C° 0 mm 6 mps 755 mmHg 63%
    16:00 +20°C° 0 mm 6 mps 755 mmHg 68%
    17:00 +19°C° 0 mm 6 mps 755 mmHg 72%
    18:00 +17°C° 0 mm 6 mps 755 mmHg 75%
    19:00 +16°C° 0 mm 6 mps 755 mmHg 78%
    20:00 +16°C° 0 mm 6 mps 755 mmHg 82%
    21:00 +16°C° 0 mm 7 mps 755 mmHg 81%
    22:00 +16°C° 0 mm 7 mps 755 mmHg 81%
    23:00 +16°C° 0 mm 7 mps 755 mmHg 81%

    27 November, Monday

    Time Temperature Precipitation Wind Pressure Humidity
    00:00 +16°C° 0.1 mm 6 mps 754 mmHg 83%
    01:00 +16°C° 0.1 mm 6 mps 753 mmHg 84%
    02:00 +16°C° 0.1 mm 6 mps 752 mmHg 86%
    03:00 +16°C° 0.3 mm 5 mps 752 mmHg 87%
    04:00 +16°C° 0.3 mm 5 mps 751 mmHg 89%
    05:00 +17°C° 0.3 mm 4 mps 751 mmHg 91%
    06:00 +17°C° 0.2 mm 4 mps 751 mmHg 91%
    07:00 +18°C° 0.2 mm 4 mps 751 mmHg 92%
    08:00 +18°C° 0.2 mm 4 mps 751 mmHg 92%
    09:00 +18°C° 0.3 mm 4 mps 751 mmHg 90%
    10:00 +19°C° 0.3 mm 4 mps 751 mmHg 89%
    11:00 +19°C° 0.3 mm 4 mps 751 mmHg 87%
    12:00 +20°C° 0.1 mm 4 mps 751 mmHg 82%
    13:00 +21°C° 0.1 mm 4 mps 750 mmHg 77%
    14:00 +22°C° 0.1 mm 4 mps 750 mmHg 72%
    15:00 +21°C° 0 mm 4 mps 750 mmHg 74%
    16:00 +21°C° 0 mm 4 mps 750 mmHg 76%
    17:00 +20°C° 0 mm 3 mps 750 mmHg 78%
    18:00 +19°C° 0 mm 3 mps 750 mmHg 82%
    19:00 +18°C° 0 mm 2 mps 751 mmHg 87%
    20:00 +17°C° 0 mm 2 mps 751 mmHg 91%
    21:00 +17°C° 0 mm 2 mps 751 mmHg 92%
    22:00 +16°C° 0 mm 2 mps 751 mmHg 93%
    23:00 +16°C° 0 mm 2 mps 751 mmHg 94%

    28 November, Tuesday

    Time Temperature Precipitation Wind Pressure Humidity
    00:00 +16°C° 0 mm 2 mps 750 mmHg 94%
    01:00 +15°C° 0 mm 2 mps 750 mmHg 95%
    02:00 +15°C° 0 mm 2 mps 749 mmHg 95%
    03:00 +15°C° 0 mm 2 mps 749 mmHg 95%
    04:00 +15°C° 0 mm 2 mps 750 mmHg 95%
    05:00 +15°C° 0 mm 2 mps 750 mmHg 95%
    06:00 +16°C° 0.1 mm 2 mps 750 mmHg 90%
    07:00 +18°C° 0.1 mm 2 mps 751 mmHg 85%
    08:00 +19°C° 0.1 mm 2 mps 751 mmHg 79%
    09:00 +20°C° 0.1 mm 2 mps 751 mmHg 73%
    10:00 +21°C° 0.1 mm 3 mps 751 mmHg 66%
    11:00 +22°C° 0.1 mm 3 mps 750 mmHg 60%
    12:00 +22°C° 0 mm 4 mps 750 mmHg 58%
    13:00 +23°C° 0 mm 4 mps 750 mmHg 56%
    14:00 +23°C° 0 mm 5 mps 749 mmHg 55%
    15:00 +23°C° 0 mm 5 mps 750 mmHg 58%
    16:00 +22°C° 0 mm 5 mps 750 mmHg 61%
    17:00 +21°C° 0 mm 6 mps 750 mmHg 64%
    18:00 +20°C° 0 mm 5 mps 750 mmHg 68%
    19:00 +17°C° 0 mm 5 mps 751 mmHg 73%
    20:00 +17°C° 0 mm 4 mps 751 mmHg 78%
    21:00 +15°C° 0 mm 4 mps 751 mmHg 80%
    22:00 +14°C° 0 mm 3 mps 751 mmHg 81%
    23:00 +14°C° 0 mm 3 mps 751 mmHg 83%
    Show more